Back to catalog

USA 16

AliveMilitaryLEO
NORAD 16624·PAYLOAD·🇺🇸 United States

Launched Feb 9, 1986 from Vandenberg Space Force Base

Loading…

Next Passes (next 24 hours)

TLE

FreshSource: Space-Track

Epoch: Sep 14, 2026, 07:52 UTC

1 16624U 86014E   26257.32821534  .00001742  00000-0  18859-3 0  9996
2 16624  63.2995 232.4378 0786912 117.9155 250.3824 13.72681019361187

Track USA 16 in real time with AllMySat

Download on the App Store